Theta_e
305 305 307 315 319 321 322 324 328 330 332 334 337 338 340 340 342 343 343 344 346 346 346 346 347 347 347 347 347 346 344 346 346 345 344 343 343 343 342 342 341 341 340 340 339 338 339 339 337 337 337 338 338 337 338 338 338 340 341 341 341 339 339 338 337 336 337 335 335 335 332 332 334 333 332 334 336 337 338 336 338 336 335 337 339
303 306 307 309 319 320 320 323 327 329 331 332 335 337 336 337 339 341 343 344 345 345 344 346 347 345 346 346 346 347 346 346 347 345 344 344 343 344 343 343 342 341 340 340 339 337 339 337 333 334 337 338 338 338 338 339 337 338 338 339 340 341 340 337 335 337 336 336 335 333 331 332 333 333 334 334 335 337 340 337 338 334 333 338 338
305 306 306 309 318 318 319 322 326 329 329 331 332 334 335 336 337 339 341 342 343 345 344 343 346 345 345 345 346 345 344 345 347 346 345 345 345 344 344 342 342 342 341 340 339 339 339 336 336 338 338 339 337 337 337 337 335 335 336 337 338 339 340 338 336 336 336 336 335 331 330 331 331 332 332 331 337 337 338 337 337 338 333 338 337
304 305 307 310 316 317 318 322 325 327 328 330 331 332 333 334 336 338 340 342 342 343 344 345 346 346 343 344 345 345 345 344 345 347 346 345 344 344 344 344 343 342 342 341 340 339 339 337 338 337 338 337 336 336 336 335 333 333 334 335 337 338 338 337 337 337 338 336 334 331 330 326 330 332 332 332 334 335 338 335 334 334 336 338 337
303 305 307 307 308 313 318 321 324 326 328 328 329 330 331 332 333 336 338 340 342 342 343 344 345 345 344 344 344 344 343 343 343 343 345 346 345 345 345 344 344 342 342 341 341 339 338 337 337 338 337 335 335 335 335 334 334 332 333 333 334 336 336 335 334 334 334 336 335 338 325 325 326 330 331 331 332 334 335 334 334 333 333 334 334
302 304 306 306 307 309 318 321 323 325 326 327 328 329 329 330 332 334 336 338 340 341 341 342 343 345 344 344 343 343 343 342 342 341 341 342 343 346 345 344 344 343 342 342 341 340 339 338 338 337 337 336 336 336 334 334 334 332 331 332 333 334 334 333 332 332 334 333 334 329 324 326 325 326 329 331 329 332 330 332 331 332 331 333 332
302 305 306 306 307 310 317 320 321 324 326 326 326 327 328 329 330 332 334 335 337 340 341 341 342 343 344 343 343 343 343 342 340 342 342 343 343 342 342 341 343 343 341 341 341 340 339 339 338 338 336 336 335 335 333 332 332 332 330 331 332 332 331 331 331 333 334 334 324 326 326 324 325 327 329 327 328 327 328 329 329 328 331 331 330
302 304 305 306 306 311 317 319 320 323 325 326 326 327 328 328 329 330 331 334 335 337 339 341 341 341 343 343 343 343 342 342 341 341 342 343 342 342 339 340 341 343 341 340 341 340 339 339 338 337 336 336 335 333 332 332 332 332 331 330 330 330 331 329 330 333 333 327 323 325 326 324 321 322 327 328 328 327 325 325 328 328 327 326 329
302 303 305 305 306 313 316 318 320 322 323 324 326 326 326 327 328 329 329 331 332 334 336 337 339 341 342 343 343 343 343 342 342 342 343 344 342 341 341 340 342 342 342 340 341 340 339 339 338 337 336 335 335 334 333 333 332 331 331 331 330 330 329 331 331 334 332 326 324 323 326 326 323 322 329 330 329 329 329 332 329 327 329 329 331
302 303 304 305 306 314 315 317 319 321 322 323 324 325 325 325 326 327 328 329 330 331 333 335 337 339 342 342 343 341 343 341 341 342 342 342 341 342 341 341 339 342 343 342 340 341 340 340 339 337 336 335 335 334 333 333 333 331 330 332 331 330 331 332 332 330 328 324 322 323 333 338 328 327 330 330 331 330 331 332 337 334 330 330 334
302 303 304 305 307 314 315 317 318 319 321 322 323 323 324 324 324 325 327 328 329 330 331 333 334 336 338 340 341 340 341 340 339 340 340 341 342 343 343 342 340 339 340 341 341 340 340 339 339 338 336 336 334 334 334 334 334 331 331 332 334 332 331 333 333 326 325 322 323 321 327 333 330 330 332 331 332 331 331 331 331 331 331 331 333
302 302 304 305 311 312 315 316 317 318 319 321 321 321 322 322 323 324 325 326 327 328 329 331 332 334 335 337 339 339 339 340 341 340 341 340 342 342 343 342 342 341 340 340 340 340 340 339 339 338 337 336 335 334 334 335 333 332 333 333 334 334 334 335 332 324 324 323 323 323 322 326 331 333 336 335 332 332 330 330 330 330 332 334 334
303 302 303 305 306 312 313 315 315 316 317 318 319 320 320 321 322 323 323 324 325 326 327 328 330 332 333 335 336 338 339 339 339 340 340 341 343 342 343 342 343 342 340 340 340 339 339 339 338 338 337 336 335 335 335 335 334 334 334 335 336 336 337 336 330 324 324 323 320 318 323 325 330 334 335 336 336 336 331 330 333 333 334 335 334
301 303 302 304 306 311 313 313 314 315 316 316 317 318 319 320 321 321 322 323 323 325 326 326 328 329 330 332 333 335 337 338 339 340 340 342 342 341 341 342 342 342 341 340 340 340 339 338 338 337 337 336 335 336 336 334 333 335 336 336 337 337 336 335 334 326 324 321 323 325 326 331 330 336 335 336 337 335 335 334 335 335 333 334 334
301 303 303 304 305 306 311 312 313 313 314 314 315 317 318 319 320 320 320 321 322 322 324 325 326 327 328 329 330 332 334 335 338 338 337 339 340 341 342 342 342 341 341 340 339 340 339 338 337 337 336 336 336 336 335 334 333 334 336 336 336 336 333 328 325 323 324 325 322 324 324 331 335 335 334 335 335 335 334 335 334 334 334 333 332
304 302 302 302 304 304 305 310 311 312 312 313 314 314 316 317 318 318 319 320 320 321 321 322 323 324 326 326 328 329 332 333 334 337 337 337 339 341 341 342 340 341 340 340 340 339 338 338 337 337 337 337 337 336 335 334 333 333 335 335 334 334 332 329 325 324 324 323 322 325 325 332 335 335 335 333 333 334 334 333 333 332 332 332 332
305 303 299 301 304 303 303 305 307 311 310 311 312 312 314 316 317 317 318 318 319 319 319 320 321 322 323 324 326 327 330 331 333 334 337 338 338 338 339 341 340 341 340 341 340 338 338 338 338 337 337 337 337 336 335 334 333 333 334 334 332 331 330 328 326 324 322 324 325 325 329 330 334 334 333 332 332 333 332 332 333 332 330 330 330
302 300 298 300 301 303 303 303 304 304 304 308 310 311 312 313 315 315 315 316 316 317 317 318 319 319 320 321 323 325 327 329 330 332 334 336 336 335 336 339 341 341 340 341 340 338 339 338 338 337 337 337 336 335 334 333 333 334 333 332 330 329 327 326 321 324 323 330 322 330 330 335 335 334 333 332 332 332 332 332 332 330 328 328 328
297 298 298 299 300 302 302 301 303 303 303 304 304 307 311 311 313 313 313 314 315 315 315 316 316 317 318 319 321 322 324 326 329 331 332 335 335 335 335 336 339 340 340 340 340 339 339 338 339 337 336 337 336 335 334 334 334 333 331 330 328 325 322 322 321 320 322 323 321 327 329 334 333 333 332 332 332 332 331 330 329 329 327 325 327
296 297 297 297 300 301 301 301 301 302 302 303 304 306 309 311 311 312 313 312 313 313 313 313 313 314 314 315 317 318 321 324 327 329 332 333 336 334 333 334 337 338 338 340 339 338 337 337 336 336 336 335 336 335 335 334 333 331 329 327 325 321 319 322 322 320 321 323 327 327 332 333 331 331 332 331 331 331 331 331 331 329 327 326 326
296 295 296 296 298 300 300 300 301 302 302 302 305 305 306 310 308 310 310 311 311 311 311 311 311 311 311 312 314 313 317 320 322 323 325 332 331 329 331 333 336 338 339 340 339 338 337 335 335 336 336 335 335 334 335 333 331 329 327 325 324 318 321 322 321 322 322 324 326 326 330 331 331 330 331 331 331 329 329 330 330 329 327 326 326
293 294 295 295 297 299 299 299 299 301 301 303 305 305 306 307 305 305 306 306 308 309 308 307 311 307 310 309 310 311 313 317 319 321 321 325 330 328 329 332 334 336 338 339 337 338 338 337 337 337 336 335 333 332 330 330 328 327 324 321 320 321 322 322 322 322 322 323 325 330 326 326 328 329 330 330 331 329 326 326 326 327 326 327 328
292 293 293 294 296 298 298 298 299 300 301 301 304 305 305 304 304 304 305 306 306 305 305 305 305 306 306 307 309 309 310 313 316 319 322 322 324 327 328 329 332 334 337 338 337 338 338 337 337 335 335 333 332 328 325 324 323 325 322 319 320 321 322 322 322 322 321 324 325 331 329 327 326 327 329 330 330 327 328 330 330 330 332 332 332
292 293 293 296 296 297 298 298 299 299 300 300 302 303 304 304 303 304 304 304 303 304 303 304 304 305 305 306 306 307 308 311 316 320 322 322 326 327 327 328 329 331 333 336 336 336 336 336 336 335 333 329 330 326 323 323 322 321 320 320 320 322 322 322 320 320 322 323 323 329 331 329 326 326 330 330 330 329 331 331 331 330 331 332 331
292 293 293 294 294 297 298 298 298 299 300 299 300 301 303 303 303 303 303 303 302 302 302 302 303 303 303 304 305 306 308 309 312 315 318 321 325 330 331 330 330 331 329 332 333 334 334 332 332 331 330 330 329 325 323 322 321 321 321 320 321 321 321 320 320 322 320 318 319 324 329 330 329 328 329 330 330 330 331 331 332 332 332 331 331
293 291 292 292 294 296 297 297 297 298 299 299 299 302 303 302 302 303 302 302 302 301 301 301 301 301 302 304 305 305 305 306 308 312 316 319 323 328 331 331 331 330 330 332 332 332 330 330 329 329 329 330 329 328 324 322 321 321 321 320 321 321 321 321 321 320 316 315 315 320 324 329 331 330 330 330 330 331 331 331 332 332 332 332 331
290 291 292 292 295 295 296 297 296 297 298 299 299 300 301 302 301 302 302 300 301 300 300 300 300 301 301 303 303 303 304 304 306 309 313 319 322 327 329 330 330 331 331 331 331 331 330 330 329 329 329 329 328 327 326 324 323 323 322 321 321 322 320 320 321 317 314 312 313 316 320 325 329 331 331 330 329 331 332 332 332 332 333 332 331
290 291 291 292 293 294 296 296 296 297 297 298 298 299 300 301 301 302 301 301 301 299 299 299 299 300 301 302 303 303 303 303 304 306 311 317 322 326 328 329 330 331 330 330 330 330 329 330 330 328 328 327 327 327 326 325 324 324 321 321 320 320 321 320 317 314 313 310 309 311 315 321 324 330 330 331 331 331 333 331 332 331 334 331 330
290 290 291 291 292 295 295 296 295 296 297 297 297 298 300 299 300 300 300 301 299 298 298 298 298 299 300 301 302 301 301 302 303 305 308 313 319 326 326 327 330 330 331 330 330 329 329 328 328 327 327 326 327 326 325 325 324 322 319 314 314 314 315 317 314 312 311 308 306 306 310 313 318 325 330 331 330 331 331 331 331 332 331 331 331
291 291 291 291 292 294 295 295 295 296 297 296 297 298 299 297 298 299 299 299 298 297 298 297 298 298 298 299 300 301 301 301 303 305 308 311 318 325 326 326 328 329 329 329 330 329 328 328 328 326 325 326 326 323 316 312 310 310 309 309 307 307 307 308 308 307 306 305 304 302 305 308 311 316 323 328 330 330 332 331 331 331 332 332 331
292 290 291 290 293 293 294 295 295 298 296 296 297 298 297 296 297 298 298 297 297 297 297 297 297 297 298 298 300 301 301 301 302 305 308 311 317 325 324 325 327 327 328 328 329 328 329 328 328 327 326 324 316 313 311 308 307 307 307 306 306 305 305 305 305 304 303 302 302 301 301 303 306 311 315 322 327 328 328 329 328 329 329 330 329
290 290 290 291 291 292 294 295 295 295 295 295 297 297 296 296 296 296 296 296 296 295 296 296 296 296 297 298 298 300 301 301 303 305 308 315 321 325 324 324 323 324 326 328 327 328 328 328 327 327 326 319 313 310 309 307 305 305 304 304 304 303 303 303 303 302 302 301 299 298 298 299 301 305 309 314 319 323 324 326 327 328 328 328 328
290 291 290 291 291 292 295 295 295 294 293 294 295 296 295 295 295 295 296 296 295 295 295 295 295 296 297 297 297 299 301 302 303 306 312 318 318 319 318 318 319 320 321 323 327 327 326 324 318 316 314 311 308 306 305 304 302 302 301 302 302 301 301 301 301 300 299 298 298 298 297 299 298 300 302 307 311 317 320 322 324 325 326 327 327
291 290 291 291 293 295 297 297 296 293 295 294 296 296 295 294 295 295 296 295 295 295 294 294 295 295 295 296 297 299 301 302 304 307 314 315 314 314 315 315 317 317 318 318 321 325 320 315 315 312 310 309 306 305 302 300 300 300 299 299 299 299 299 298 298 298 298 297 298 297 298 298 297 298 298 300 305 311 315 318 320 321 322 324 324
291 290 290 291 292 293 297 295 296 292 293 292 294 295 296 294 294 294 295 296 295 295 294 294 295 295 295 296 297 298 301 302 304 308 311 311 311 310 311 314 316 315 314 314 315 314 313 311 310 306 305 303 303 302 300 298 298 297 298 298 298 298 297 297 297 296 296 296 296 295 296 296 297 297 297 296 299 304 309 313 315 317 319 320 320
291 291 291 291 291 292 294 293 293 292 292 293 293 293 294 294 294 296 294 295 294 294 294 294 296 296 295 295 297 298 300 301 303 307 308 309 309 309 310 313 313 312 311 310 310 309 308 307 307 305 300 300 299 298 298 297 297 296 297 297 297 297 296 296 295 295 295 295 294 294 295 295 295 295 295 296 296 299 303 306 309 312 314 315 317
292 291 291 291 291 291 292 292 292 292 292 292 293 292 292 294 295 295 295 294 294 294 294 295 295 295 295 295 296 297 299 300 302 305 306 307 308 308 310 311 311 311 309 308 307 306 304 302 302 302 300 298 297 296 296 296 295 295 295 295 295 296 295 296 295 294 294 293 293 294 294 294 294 294 294 295 295 295 298 301 303 305 307 310 313
293 292 292 291 290 290 291 293 293 292 292 291 292 292 291 291 295 296 298 294 293 295 294 295 294 294 294 294 296 297 299 299 300 304 305 305 306 308 309 309 309 308 308 307 305 305 304 302 300 300 300 297 295 294 294 294 294 293 294 294 294 294 294 295 295 295 294 293 293 292 293 293 293 293 294 294 294 295 295 296 298 299 301 304 308
293 292 292 291 291 290 293 291 292 291 291 291 291 292 291 290 293 297 296 295 294 295 295 294 294 294 293 294 296 297 297 298 299 302 303 304 305 306 307 307 308 306 305 304 303 303 302 302 300 298 299 298 296 295 294 294 293 293 292 293 293 294 294 295 295 295 294 294 293 292 292 292 292 293 293 293 294 294 294 294 294 294 295 300 303
294 293 293 291 291 290 290 290 291 291 291 290 290 290 290 289 290 291 292 293 293 295 295 294 294 293 293 294 295 295 296 297 297 299 301 302 303 304 305 305 305 304 302 301 301 300 299 298 297 297 296 296 296 295 294 292 292 291 291 292 293 293 293 293 293 294 294 294 294 294 292 292 291 291 292 292 293 292 292 293 294 293 294 295 298
294 293 292 292 291 291 290 289 290 291 290 288 289 289 289 289 290 291 290 291 292 295 293 294 293 294 293 293 294 294 295 295 297 297 297 300 301 302 304 304 303 302 301 300 300 299 299 298 297 297 295 293 293 294 294 294 291 289 291 290 291 292 293 292 292 292 292 293 294 293 292 291 291 291 291 292 291 291 291 291 291 291 292 292 292
292 293 292 292 292 291 290 290 290 291 290 289 290 289 290 290 289 289 289 289 290 291 292 293 293 294 292 292 293 293 294 295 296 296 296 296 298 299 300 303 303 301 300 300 300 300 298 298 297 295 296 294 293 295 296 298 293 290 289 288 289 291 292 292 291 291 292 293 292 292 292 292 291 292 293 292 291 290 289 289 289 288 290 290 290
293 293 293 293 292 291 290 290 290 291 290 291 291 289 290 290 290 290 290 288 290 291 292 295 294 292 292 292 292 292 293 292 294 295 294 294 295 296 297 299 302 303 301 300 300 299 299 297 296 295 293 295 295 297 298 299 292 292 292 291 289 289 291 291 291 290 290 292 292 291 291 292 291 291 290 289 289 287 287 287 287 288 288 288 289
294 293 294 292 292 294 291 290 291 291 291 291 294 291 292 291 291 291 291 291 290 290 289 289 290 291 290 291 291 291 292 292 293 293 294 294 294 295 296 297 297 301 303 301 299 298 298 297 296 296 296 294 295 294 297 296 295 296 294 293 292 291 288 287 286 286 288 288 288 289 290 289 289 289 288 286 286 286 286 287 287 288 288 288 288
295 294 294 293 295 292 292 291 290 291 291 292 291 292 291 288 290 290 290 290 289 288 288 288 289 290 290 290 290 290 291 292 292 293 295 294 295 294 295 295 296 296 298 300 300 300 300 299 300 299 299 297 294 293 294 296 298 299 294 291 290 290 291 287 285 285 287 286 286 287 288 287 287 287 286 286 287 287 287 287 288 289 288 288 288
294 295 295 294 292 292 292 291 291 291 290 291 291 292 290 288 288 287 287 285 285 286 286 287 288 288 288 289 290 290 290 290 291 292 293 295 294 295 294 294 295 296 297 298 298 298 299 300 302 301 297 297 296 294 293 297 296 296 296 297 299 296 288 286 288 284 285 287 287 287 287 288 287 287 287 286 286 286 288 288 289 288 289 288 288
294 296 295 294 294 293 292 291 291 290 292 291 291 292 289 289 289 287 287 286 285 286 287 287 288 288 289 289 289 289 290 290 290 291 291 293 293 293 293 293 293 294 295 295 295 296 296 297 299 299 297 297 296 294 295 296 298 296 297 297 298 295 291 287 286 284 282 284 285 285 285 287 286 287 287 287 287 287 288 289 290 288 288 289 289
293 295 295 295 295 294 293 292 291 292 290 291 291 291 290 289 289 287 290 287 286 286 287 286 287 289 288 288 289 288 289 289 289 290 291 291 292 291 291 291 291 292 293 293 293 294 297 298 297 299 299 298 297 295 294 295 295 293 294 296 293 292 292 297 292 288 286 280 281 285 286 285 285 285 285 285 285 286 286 286 287 287 287 289 288
295 295 294 294 294 294 294 293 292 291 290 291 292 290 292 290 289 288 287 289 289 289 289 288 287 288 287 287 287 287 288 289 289 290 290 290 292 291 290 290 290 291 292 291 291 291 291 291 292 292 293 294 295 297 296 294 294 293 293 294 292 291 293 295 292 292 286 283 281 280 281 284 285 285 284 285 286 286 286 286 286 286 287 287 287
295 296 295 294 294 293 293 293 292 291 291 290 291 290 290 291 288 288 288 288 288 288 287 287 286 287 286 286 286 287 287 287 288 289 290 290 290 290 290 289 289 291 291 289 289 288 289 289 290 290 290 291 292 292 292 292 293 294 295 294 293 292 292 291 291 289 287 286 281 280 281 280 279 282 285 285 285 286 286 286 286 286 286 286 286
295 295 295 295 295 295 293 292 292 292 291 290 290 290 290 290 289 289 288 287 287 287 286 287 286 286 286 286 286 287 287 287 287 288 289 290 290 291 290 290 290 291 291 289 289 289 289 289 289 288 289 289 289 290 291 291 291 289 288 289 290 291 290 289 288 289 286 283 281 281 281 282 281 281 283 285 285 285 285 285 285 286 286 286 286
Wind_Speed
7 12 11 16 20 21 21 22 24 26 25 25 25 24 24 24 26 23 21 16 13 12 11 12 12 10 9 8 7 8 7 5 5 4 3 3 2 2 3 4 3 3 2 2 2 2 1 3 3 4 4 5 5 4 6 8 9 9 11 11 11 11 11 12 10 10 8 8 9 9 7 8 8 8 7 8 8 9 6 4 9 7 6 8 13
15 12 10 11 21 19 20 22 24 25 25 25 25 24 24 24 25 26 22 19 14 12 12 13 12 12 11 10 10 9 8 7 6 6 5 4 4 3 4 4 4 3 2 3 3 2 2 2 3 5 5 5 5 5 7 7 7 8 9 10 10 10 10 9 9 11 10 9 9 9 7 6 9 8 9 8 9 10 8 12 12 6 3 10 11
9 10 9 11 19 20 19 21 24 24 25 25 24 25 24 23 23 24 25 21 16 14 12 12 14 12 11 12 10 11 9 9 8 8 7 6 5 4 5 4 4 4 3 3 3 2 3 3 3 4 4 6 5 6 6 7 7 7 8 9 9 9 9 9 10 10 9 9 9 10 9 8 8 9 7 7 10 11 10 12 11 8 6 12 11
11 10 9 11 18 19 18 21 22 23 25 24 24 23 23 24 23 23 24 23 19 17 14 13 14 13 10 10 13 11 10 8 9 8 8 7 6 5 5 6 5 5 5 4 4 4 3 3 3 1 4 5 5 6 7 8 6 6 7 8 8 8 9 8 8 6 5 8 10 8 4 5 6 6 7 8 8 9 8 11 10 8 10 9 11
10 9 9 10 10 13 18 22 22 22 23 24 24 24 23 23 23 23 22 24 22 20 16 13 13 13 12 10 9 9 11 10 9 10 7 8 8 7 6 7 6 6 6 6 5 5 4 3 3 3 4 4 5 6 7 6 7 5 6 6 7 8 8 7 5 2 4 5 6 6 1 6 4 6 5 6 8 7 10 9 10 9 8 9 9
10 9 9 10 9 10 19 21 21 22 23 23 24 24 23 23 22 22 21 22 23 22 19 13 13 13 13 11 10 9 10 10 8 9 12 10 8 9 8 8 7 6 6 6 6 6 6 5 4 5 4 4 5 6 6 7 5 6 4 6 6 7 7 6 4 3 3 3 3 1 2 6 5 3 5 7 6 6 5 7 7 7 7 7 8
8 8 9 9 8 10 20 20 20 21 22 22 22 22 23 23 23 21 22 21 21 22 23 18 14 13 13 12 11 10 11 8 9 12 11 13 12 9 6 8 9 8 8 8 7 7 6 6 6 5 5 5 4 5 5 4 5 6 5 4 5 5 4 3 1 4 4 5 4 4 3 5 4 3 7 3 3 3 3 3 3 3 6 5 6
8 8 9 8 8 13 21 21 21 20 21 22 21 21 21 22 21 23 21 21 21 21 21 21 18 15 13 12 12 12 11 10 13 12 14 14 13 8 5 13 12 8 9 9 8 8 7 7 7 6 6 6 5 4 4 4 5 5 4 4 4 4 3 1 2 6 6 3 5 1 0 4 6 5 6 4 4 4 1 2 3 4 2 4 4
8 9 10 9 8 19 20 20 21 21 21 20 21 21 20 20 20 20 21 21 20 21 20 21 21 19 17 14 13 13 12 12 13 13 14 14 13 8 11 12 14 9 10 11 9 9 8 8 8 7 7 7 6 5 5 5 4 4 4 4 2 3 2 3 3 6 5 5 5 1 3 2 6 4 7 6 6 6 4 5 1 3 6 6 5
8 9 9 9 9 18 20 21 21 21 21 21 21 21 21 20 19 19 20 21 21 20 20 20 20 21 20 17 15 13 14 14 13 12 14 12 13 13 12 12 11 13 12 12 11 10 10 9 9 9 9 8 8 7 6 5 4 4 4 4 3 4 4 4 6 4 3 5 3 0 3 6 7 4 5 4 6 4 5 6 4 7 4 4 6
9 8 8 9 11 19 20 21 21 21 20 21 21 20 21 20 19 19 20 20 20 21 21 20 20 20 21 21 17 14 15 15 12 12 12 13 12 14 14 13 15 13 13 12 11 10 10 10 10 10 10 9 8 8 7 6 5 4 3 3 4 6 6 7 5 2 4 1 2 3 3 3 5 3 4 4 5 4 5 5 3 6 4 1 3
8 7 7 7 12 18 21 21 21 21 21 21 21 21 20 19 19 18 19 20 20 20 20 19 19 19 20 20 21 18 13 14 11 13 12 14 14 14 13 14 13 12 13 11 10 11 11 11 11 11 11 10 10 8 8 6 5 4 4 4 5 8 7 7 3 2 3 1 2 3 1 5 5 3 4 2 1 5 5 4 3 3 2 3 2
8 8 7 6 6 15 20 21 21 21 21 21 21 21 19 18 19 19 18 19 20 20 20 20 19 19 19 19 19 20 18 13 17 15 15 16 15 13 13 13 13 12 13 13 8 9 12 12 11 11 10 10 10 10 9 7 6 6 5 5 7 7 7 7 2 4 5 2 2 0 2 3 4 6 5 3 2 3 4 3 2 3 3 2 1
8 8 9 7 6 15 19 20 20 21 21 21 21 21 20 19 18 19 20 19 19 20 20 20 19 19 19 19 18 19 20 19 11 14 16 15 14 13 13 14 13 13 14 14 12 11 11 12 12 12 11 11 10 11 10 9 8 7 5 6 7 6 8 4 5 4 3 2 1 3 1 6 3 6 6 5 7 1 5 2 1 1 2 3 2
7 7 8 7 8 8 19 19 20 21 21 20 21 20 21 21 19 19 20 20 19 19 20 20 20 19 19 18 17 17 17 19 15 17 16 16 14 13 13 13 14 14 15 14 15 12 11 10 13 12 12 12 11 11 11 10 9 8 7 6 7 5 8 4 4 4 2 1 1 0 1 5 6 6 6 4 3 4 2 2 3 3 3 3 2
4 7 6 6 7 8 8 14 20 21 21 20 19 20 20 21 21 20 20 20 20 19 20 20 21 20 19 18 17 16 17 17 18 15 16 14 15 13 12 13 13 14 14 15 15 12 13 12 10 13 13 13 13 12 11 11 10 9 8 7 6 6 7 7 3 6 1 3 1 2 2 3 7 8 6 4 2 3 5 4 3 3 3 2 2
5 8 7 7 7 9 8 8 14 20 19 22 19 19 19 20 21 21 20 20 20 19 20 20 20 21 20 19 18 16 17 18 16 18 14 15 14 13 10 11 12 14 13 14 13 12 13 13 14 15 14 13 13 12 12 11 10 10 8 7 6 6 6 3 4 4 5 3 3 2 5 3 5 5 3 1 3 3 4 4 5 3 2 3 1
5 7 8 7 8 9 9 9 9 10 12 15 17 14 17 20 20 21 20 20 20 19 20 21 21 20 20 19 18 17 17 18 18 16 15 12 13 10 11 12 10 12 12 14 12 13 16 15 15 15 15 14 13 13 12 11 10 9 8 6 5 5 4 2 3 4 6 2 3 5 5 5 6 5 4 3 2 2 2 4 5 1 1 1 0
6 7 7 6 9 8 9 9 9 9 10 10 12 8 16 17 21 21 20 20 19 21 20 20 20 20 20 19 18 19 17 16 17 16 14 13 16 12 13 13 11 10 10 10 12 16 16 16 16 16 15 15 15 14 13 9 10 8 7 6 4 2 2 2 2 3 4 2 5 5 4 6 5 5 2 0 3 3 1 3 2 4 1 1 1
5 6 7 5 8 8 8 9 9 10 9 11 12 10 13 19 20 20 20 20 21 20 21 20 19 19 20 20 19 17 14 11 15 14 12 13 16 12 11 13 13 10 10 11 10 12 11 12 14 12 13 14 14 14 11 9 8 7 6 5 4 2 1 4 2 3 5 1 6 5 6 6 3 1 2 4 3 5 5 5 4 2 1 1 1
5 6 7 7 8 9 9 9 9 11 10 11 8 9 11 19 15 16 19 19 19 20 20 19 18 16 17 18 17 11 9 9 8 9 14 11 11 13 13 14 13 11 15 11 6 10 15 15 16 14 14 11 10 10 9 10 8 7 5 6 4 2 2 3 3 3 3 5 4 3 5 5 5 2 3 5 6 6 5 6 7 4 1 4 2
7 7 5 7 8 8 9 10 9 11 10 10 7 7 6 10 11 8 8 13 14 18 12 12 16 11 17 13 10 10 9 9 10 10 8 11 9 14 15 16 12 14 15 11 11 11 14 17 15 11 12 10 7 5 6 8 8 7 6 5 4 3 4 4 4 2 4 6 5 5 4 1 0 3 5 2 3 5 0 1 2 2 4 5 4
8 8 6 8 7 7 8 11 11 11 11 10 8 8 6 6 7 8 7 11 13 14 11 13 11 11 12 12 11 8 10 10 10 11 11 12 14 14 17 16 13 13 13 14 13 12 13 15 15 14 11 6 5 5 5 5 4 6 5 4 4 4 4 2 1 5 6 7 5 9 5 2 1 4 5 5 5 2 2 3 1 0 2 2 4
7 7 8 7 8 8 9 10 10 10 11 9 8 10 7 8 7 7 7 8 9 10 11 11 10 11 11 11 10 11 10 9 15 17 13 8 9 13 13 16 15 12 10 8 9 10 14 14 15 12 7 5 4 5 5 5 5 4 4 5 4 4 2 1 3 6 7 7 7 16 9 4 3 3 5 6 6 5 3 1 1 1 2 3 2
6 6 7 7 8 7 9 9 9 9 10 9 9 9 10 8 7 7 7 8 8 10 10 10 10 12 12 11 11 11 10 9 10 10 8 7 7 8 7 8 8 7 7 5 4 5 6 5 7 7 5 5 6 6 6 6 6 5 5 5 5 3 1 2 4 8 7 7 9 17 15 9 5 3 5 7 8 9 3 2 3 4 4 5 4
5 6 8 8 7 7 8 8 9 9 9 9 10 10 10 9 9 9 8 7 8 10 9 9 10 11 11 10 10 11 11 9 10 11 10 8 7 6 7 7 7 7 6 5 5 4 5 5 6 6 5 5 6 4 5 6 7 6 5 3 5 2 1 2 7 8 7 7 9 18 16 14 8 5 5 7 7 3 1 3 5 6 6 6 7
6 7 6 6 6 7 8 8 8 9 10 9 9 8 9 9 9 9 10 9 9 10 9 9 10 11 11 11 10 10 10 10 10 11 11 8 8 6 5 4 6 6 6 5 4 5 5 6 5 6 6 7 7 6 5 4 4 3 4 7 4 1 1 7 7 8 7 8 10 20 18 19 16 5 4 4 4 3 4 4 6 8 8 9 10
5 6 6 7 6 8 8 9 8 8 8 8 9 8 8 9 10 10 9 10 11 9 9 9 10 10 11 10 11 9 9 10 11 11 11 10 9 5 3 4 2 4 4 5 5 4 5 5 6 5 4 4 6 5 7 5 3 4 5 4 2 5 7 8 8 9 7 7 9 16 19 22 26 14 4 4 3 3 4 2 4 5 15 13 14
7 6 8 7 6 7 8 9 8 9 8 8 8 7 7 9 10 9 9 12 8 9 10 10 9 9 10 11 11 10 9 9 10 10 11 11 10 6 6 5 4 3 5 4 4 4 4 5 5 6 5 6 6 5 4 6 6 7 7 8 8 8 8 8 8 9 8 7 7 13 21 22 23 23 14 12 7 6 7 9 10 11 17 19 19
6 6 7 6 6 7 8 9 8 8 8 8 7 8 7 10 10 10 10 11 10 11 11 9 9 9 9 11 12 11 10 10 11 10 10 11 10 7 5 5 3 2 4 4 5 5 4 5 5 5 5 5 5 8 8 8 9 8 8 8 8 8 8 9 9 8 8 7 7 9 19 21 24 24 25 21 19 18 16 15 18 20 21 20 21
6 6 6 6 5 6 7 7 7 7 6 7 7 8 8 9 10 10 9 11 11 10 10 9 9 9 9 12 12 11 10 10 11 11 9 11 11 6 6 4 3 3 3 3 3 4 3 5 6 7 7 8 8 8 9 10 9 8 7 8 7 8 9 8 8 7 8 7 7 7 11 21 21 22 25 27 23 23 21 17 18 18 18 21 19
5 6 5 6 6 6 6 6 6 7 7 6 5 7 6 7 9 8 9 10 11 10 10 9 9 9 10 11 11 10 11 10 10 11 10 14 11 4 4 5 3 3 1 2 2 4 4 4 3 5 8 9 9 8 8 10 9 8 7 7 6 8 8 7 7 7 7 7 7 8 8 10 17 20 22 25 26 26 25 22 20 19 17 15 17
5 6 6 6 7 6 6 6 6 6 7 7 5 6 3 6 8 9 8 9 9 10 10 9 9 9 10 11 11 12 10 10 11 11 12 6 8 7 7 7 4 4 5 6 1 4 4 4 7 10 10 10 11 9 9 10 10 9 9 7 6 8 8 8 7 7 8 7 7 6 7 8 9 15 19 22 24 24 27 26 25 23 20 18 20
6 6 6 6 6 5 4 5 5 7 7 6 6 6 3 4 6 8 9 9 8 10 10 8 10 9 10 11 11 11 11 10 10 11 7 6 8 9 8 7 4 5 6 5 4 3 6 8 7 10 8 10 10 8 9 11 9 9 9 7 8 6 7 9 8 7 6 7 7 7 7 7 7 7 8 17 21 22 25 25 27 25 21 20 20
4 6 6 5 5 6 5 5 6 6 7 7 7 7 3 4 5 7 7 8 7 7 8 8 8 9 9 9 10 10 9 10 10 8 6 6 8 8 9 7 5 6 8 7 7 8 8 7 8 12 9 10 8 8 9 8 9 11 8 8 7 6 9 9 8 7 7 7 8 8 8 7 7 7 7 7 12 20 22 23 25 26 24 22 19
4 5 6 5 5 5 6 6 6 6 6 7 6 6 4 2 4 4 6 7 7 8 8 9 8 8 8 8 10 10 10 11 9 7 6 6 8 9 8 7 8 8 8 7 8 8 8 9 7 9 14 8 9 10 9 10 8 11 7 8 7 8 8 7 7 7 6 7 8 8 8 8 8 7 8 7 7 11 21 21 22 24 24 22 21
4 5 5 6 5 6 5 6 7 7 7 7 6 5 6 2 2 4 6 6 8 8 9 8 8 8 8 8 10 10 9 11 8 7 7 8 8 8 8 10 10 9 8 7 8 7 9 10 9 7 11 12 10 12 9 7 10 9 8 10 8 7 8 7 7 6 6 8 8 8 8 8 7 9 7 7 7 7 13 18 18 20 21 21 21
3 4 4 5 5 5 5 5 6 5 6 6 6 6 5 5 1 4 4 6 7 5 7 8 8 8 9 9 10 10 8 10 9 7 6 8 9 9 10 11 10 10 9 8 8 8 8 9 11 8 6 9 12 13 12 9 10 10 10 10 8 7 7 7 7 6 6 8 8 8 7 6 6 7 6 6 7 6 6 12 17 16 19 20 21
2 4 5 5 5 4 5 5 5 6 5 6 6 6 6 4 4 4 5 5 6 4 4 6 6 6 8 9 10 9 9 9 8 9 11 10 11 11 10 10 9 9 9 9 8 7 8 7 11 11 11 8 9 11 12 11 11 10 10 10 9 8 7 7 6 6 6 7 7 7 6 6 6 7 6 6 6 6 7 6 6 6 9 17 17
2 3 4 5 5 5 4 4 5 5 5 5 6 7 6 6 8 7 7 7 7 9 5 4 5 8 10 8 7 8 10 11 13 13 12 11 10 9 9 9 8 8 9 10 8 7 9 11 9 11 11 10 8 8 9 13 11 11 12 10 9 8 9 7 7 7 6 6 6 5 6 5 6 6 6 5 5 5 6 6 7 7 7 9 13
1 3 4 5 5 6 5 6 5 4 4 5 5 6 7 7 5 6 7 8 8 9 9 8 7 6 10 13 13 11 12 13 13 12 11 10 9 8 8 9 8 9 8 9 9 9 8 8 8 7 11 11 8 7 6 7 13 10 9 10 9 8 8 8 8 7 7 6 5 6 6 5 5 5 5 5 5 5 6 7 7 6 5 4 5
3 4 3 4 5 6 5 5 6 5 4 4 4 5 5 5 4 5 4 5 7 8 9 10 10 8 9 9 10 10 10 10 10 10 11 11 10 9 9 8 7 8 9 9 10 9 9 7 6 8 5 7 7 5 2 2 3 7 8 5 6 5 6 7 7 6 5 5 5 5 5 5 5 4 4 4 4 5 5 4 4 4 3 2 2
3 5 2 3 5 5 5 4 6 6 5 4 4 4 4 5 5 4 5 5 3 6 6 6 7 8 9 9 9 8 8 8 8 8 9 10 9 9 9 8 8 6 7 8 7 7 6 6 5 6 9 5 4 1 3 1 5 6 6 7 2 3 2 4 4 5 5 4 4 4 3 3 4 2 3 3 3 4 3 3 3 2 2 1 1
4 4 2 3 4 4 5 4 5 5 4 5 5 4 5 4 6 5 4 4 3 5 5 7 9 10 11 9 10 10 10 10 10 9 9 10 10 10 8 9 8 7 7 7 7 7 6 5 5 5 5 6 1 4 3 5 5 4 4 3 3 3 3 1 2 2 4 4 5 4 3 3 3 4 3 3 3 3 3 3 3 2 1 2 2
3 4 2 2 3 5 5 4 5 5 3 5 5 5 5 4 6 5 3 2 1 3 4 9 9 9 9 10 10 9 10 10 11 11 10 10 9 8 7 6 8 9 8 7 7 7 6 4 3 3 3 2 3 3 2 2 5 4 4 5 3 0 2 3 4 2 2 3 3 3 2 3 3 3 3 3 2 3 2 2 2 1 2 2 2
3 2 2 3 4 4 4 4 4 5 4 3 5 4 5 4 6 7 8 6 6 6 7 7 7 8 9 7 9 10 10 10 10 10 10 9 9 8 7 7 7 7 7 6 6 6 5 5 4 4 5 5 3 4 3 2 3 4 4 2 0 1 5 4 2 2 1 2 2 1 1 1 2 3 3 3 2 2 2 1 1 2 2 2 2
2 1 2 4 4 5 4 4 4 4 4 2 4 4 4 4 5 4 5 6 7 4 3 3 3 3 4 6 6 7 8 9 9 9 9 8 8 8 7 7 6 6 5 5 5 5 3 4 3 4 4 3 3 5 4 2 2 2 2 1 2 1 7 7 2 4 2 1 2 2 1 1 1 1 2 2 2 2 1 1 1 2 2 2 2
4 1 2 3 4 5 5 5 4 4 4 2 4 4 4 4 5 4 4 5 6 6 5 4 4 4 5 4 4 5 6 6 7 8 8 8 7 8 7 6 6 5 5 5 5 4 3 3 4 3 2 3 4 4 4 2 1 1 2 2 4 5 6 1 5 4 4 4 2 1 2 3 2 2 2 2 2 3 2 1 0 2 1 1 2
2 1 3 3 4 4 5 5 6 4 4 1 2 4 3 4 4 3 4 4 4 6 6 5 5 4 5 5 4 4 4 4 5 6 6 7 7 6 7 7 7 6 4 5 4 5 5 5 5 6 4 5 4 3 2 2 3 2 2 3 4 3 1 2 4 2 3 3 2 3 2 2 2 2 2 2 3 2 3 3 1 1 2 2 2
2 1 2 3 3 4 4 5 6 5 4 2 1 2 2 3 4 4 4 4 4 5 5 5 5 5 5 6 4 5 5 5 5 5 6 6 6 6 6 7 6 6 6 5 4 4 4 4 4 4 5 5 5 5 4 3 3 2 2 3 2 2 1 2 1 0 3 4 5 5 5 6 4 3 4 3 3 3 3 3 3 2 2 2 2
1 3 4 3 3 4 4 5 6 6 5 4 2 2 1 1 1 2 3 4 4 4 4 4 4 5 5 5 6 4 5 6 5 6 6 5 5 5 5 4 4 4 5 5 6 5 5 5 4 5 5 5 4 5 5 4 4 5 6 3 2 1 0 2 3 1 2 2 4 3 3 5 4 3 5 4 5 4 4 3 4 3 3 3 2
Wind_Direction
3 340 338 338 339 344 346 349 348 348 347 344 345 346 345 343 339 345 348 339 323 322 319 320 309 284 280 277 268 262 236 215 209 192 192 201 235 263 207 185 166 155 179 138 135 172 178 111 121 131 85 72 100 114 77 71 75 74 72 78 78 81 89 95 102 104 95 87 92 86 87 84 76 90 93 83 63 38 349 27 61 80 65 70 68
334 338 334 335 337 342 345 347 347 347 346 346 345 347 346 344 340 339 345 344 333 320 322 320 312 311 284 277 278 265 239 216 211 199 201 207 209 253 240 218 184 165 179 182 163 177 157 137 146 146 116 102 86 88 94 88 77 77 75 80 86 89 91 98 105 104 105 103 99 94 86 84 90 89 94 84 70 46 24 95 88 78 75 79 75
325 329 329 332 338 341 344 347 345 345 345 346 346 346 347 343 339 337 340 342 342 333 321 313 313 312 312 291 263 267 266 231 209 204 204 205 204 228 246 228 203 188 178 188 194 191 168 162 165 161 147 114 118 97 85 78 83 75 74 77 86 92 92 94 102 106 108 121 111 99 96 82 98 96 81 80 67 54 51 91 98 105 93 84 82
333 326 335 338 339 342 344 345 345 344 344 345 346 346 347 344 340 336 338 339 342 342 331 320 315 312 305 296 281 273 278 253 229 212 206 202 203 216 230 239 224 200 189 187 193 203 171 171 202 162 118 121 112 115 102 95 85 80 76 80 82 88 92 95 93 99 136 129 128 141 118 74 62 73 78 69 65 55 60 70 76 80 95 104 96
331 334 340 336 338 342 344 345 343 344 344 344 345 345 346 345 341 336 338 337 340 341 332 323 315 312 307 300 287 279 287 287 277 265 223 202 203 214 225 223 246 220 198 192 194 185 183 178 192 149 123 141 133 117 108 103 92 97 92 85 81 83 89 93 94 154 146 153 174 192 95 110 97 79 91 75 47 64 72 76 74 69 72 74 74
331 338 339 335 334 334 344 343 341 342 344 344 344 343 345 344 341 337 337 338 337 334 331 326 325 317 307 302 295 278 267 266 269 276 279 260 215 212 214 223 239 230 214 209 196 190 179 188 185 167 154 121 116 108 114 109 114 89 106 96 87 81 83 86 88 252 245 195 238 242 199 112 106 89 75 79 66 22 72 88 82 87 85 91 81
333 337 337 332 333 332 340 341 341 340 342 342 343 343 343 343 341 340 338 336 333 333 332 336 329 330 320 302 292 282 261 263 269 259 254 251 234 231 244 282 241 227 222 212 199 192 189 182 186 178 152 135 135 129 115 131 108 109 92 106 91 86 79 77 123 259 314 320 301 226 88 128 118 116 106 97 88 101 15 55 98 101 100 77 87
335 334 337 331 331 334 335 337 340 340 340 340 342 342 342 343 342 339 338 334 332 331 331 333 333 328 325 311 289 280 273 233 237 246 243 250 250 243 200 246 254 248 229 214 203 193 192 183 184 177 163 152 149 153 157 128 124 118 130 110 115 103 92 74 262 300 287 280 286 67 137 123 117 123 126 124 107 118 155 128 22 93 101 74 13
336 340 334 334 333 332 332 335 337 338 341 341 340 341 342 342 341 338 336 334 332 331 331 331 330 331 323 316 299 280 274 261 242 242 248 245 250 243 225 230 241 240 243 223 203 196 186 185 181 179 166 158 162 158 150 144 141 145 149 145 140 135 148 229 268 282 320 286 251 71 30 53 141 130 139 150 150 117 95 30 70 107 79 32 5
344 341 334 338 332 330 334 335 335 336 337 341 341 339 340 341 339 339 336 335 333 331 328 328 328 328 327 323 315 292 273 262 253 242 244 243 242 241 233 225 249 237 228 223 205 195 187 186 183 174 168 169 171 164 161 159 163 170 155 179 172 183 196 219 244 252 256 283 67 24 34 19 62 92 130 122 113 131 91 71 59 93 78 29 8
347 335 344 334 328 332 334 335 334 334 336 338 340 340 338 339 339 337 337 336 334 330 328 328 326 325 323 321 321 313 285 268 270 272 259 249 242 237 230 222 217 239 237 220 210 199 190 189 186 177 170 173 175 168 162 169 180 176 175 189 189 180 209 231 248 299 264 285 17 40 56 12 86 70 122 133 99 114 81 75 87 109 82 6 36
338 338 342 333 328 334 336 336 335 336 336 336 338 339 337 337 337 337 335 336 334 332 329 328 325 321 320 320 321 324 308 280 270 256 259 260 250 245 241 234 224 218 238 238 223 210 193 190 188 182 175 174 172 165 161 177 183 179 187 200 186 185 206 239 245 263 289 354 45 11 1 72 91 82 82 58 163 129 139 130 127 112 61 351 8
332 337 338 332 326 337 336 336 336 336 336 336 337 337 337 336 336 335 334 336 334 332 330 328 327 322 319 319 321 321 325 301 250 256 252 248 252 245 237 235 225 221 229 229 238 217 209 188 188 186 182 177 171 165 167 175 179 180 198 195 188 189 216 236 279 285 282 57 55 47 252 84 98 89 67 47 6 318 188 160 26 355 356 332 253
327 340 339 329 339 338 339 337 336 337 336 337 337 336 336 335 336 336 334 332 334 332 330 328 326 323 321 319 319 321 320 326 286 260 250 251 253 253 245 233 225 222 219 217 217 224 215 200 186 186 186 182 175 171 172 179 177 181 196 196 184 195 234 240 237 262 269 71 61 17 17 69 70 98 89 71 40 45 278 7 350 119 169 106 232
325 344 331 345 342 339 341 340 338 337 337 336 335 336 338 334 334 335 335 331 331 332 330 329 327 324 322 320 317 316 314 315 311 253 258 260 255 252 245 238 228 222 216 206 216 213 214 215 203 189 186 183 178 180 179 181 179 185 191 190 188 186 233 231 240 248 163 94 68 111 308 101 85 90 93 61 61 30 113 137 124 103 157 182 158
339 346 330 348 346 345 338 341 340 340 339 333 335 339 338 336 332 332 335 332 331 332 330 330 327 325 322 321 318 311 306 306 304 295 251 255 257 251 250 245 240 232 219 211 212 214 210 207 214 198 189 183 183 186 183 182 185 185 183 179 184 188 221 232 312 311 248 151 88 179 64 76 79 78 71 77 87 155 140 160 91 163 179 192 150
3 346 340 345 352 344 341 342 341 342 339 337 339 338 337 337 333 332 333 332 331 331 330 329 327 324 323 321 318 314 307 298 297 303 278 247 247 250 260 258 246 238 218 211 202 214 211 205 211 208 191 189 186 186 184 186 189 176 175 172 175 196 219 245 267 290 274 146 178 62 78 73 78 77 61 30 105 19 161 159 175 174 185 153 164
7 346 346 342 350 343 344 345 341 343 337 334 325 334 340 335 332 331 332 331 330 331 331 329 327 326 324 321 319 317 309 303 299 297 297 248 249 255 267 256 253 242 229 217 198 213 210 205 212 206 195 193 191 190 189 192 186 169 165 161 164 186 222 217 246 267 296 165 118 100 84 98 97 94 72 33 354 35 106 167 177 143 72 136 100
3 343 346 336 349 342 345 345 342 341 338 332 323 330 347 338 333 331 332 331 334 332 330 329 327 326 325 323 319 318 312 304 303 298 294 271 244 232 242 250 248 246 240 232 208 208 215 208 208 206 205 191 192 189 191 192 177 164 153 145 150 148 274 259 227 258 282 158 105 101 113 102 107 98 101 192 272 249 196 191 210 165 38 15 114
357 345 338 337 348 343 343 345 343 340 340 336 329 336 350 342 334 334 333 336 335 333 332 331 328 328 327 324 323 320 317 316 314 315 301 282 248 231 228 238 234 232 259 241 221 216 213 226 222 213 213 202 194 190 189 167 165 160 152 141 147 149 220 262 274 278 277 26 89 121 118 118 104 146 288 251 241 234 203 252 262 296 185 318 147
349 345 332 343 345 343 345 348 344 339 341 338 332 338 343 339 329 329 338 335 335 334 333 333 332 330 326 325 324 321 313 315 314 308 311 298 247 232 232 228 222 209 228 233 203 203 202 219 221 207 211 197 203 202 151 148 156 163 145 157 150 178 224 240 248 256 297 81 76 84 135 157 186 167 265 249 247 248 249 237 241 233 267 228 190
346 339 326 349 342 343 347 348 342 341 344 342 333 333 334 333 318 328 344 336 335 332 333 334 333 326 327 326 322 320 321 319 310 311 306 309 276 227 226 231 216 208 219 214 217 211 214 209 201 199 195 183 198 174 139 147 158 163 164 153 162 195 216 216 226 254 38 64 50 28 79 39 119 240 267 242 272 269 108 310 4 12 251 196 206
343 337 332 344 342 340 350 346 342 341 342 340 333 316 320 329 324 340 339 336 333 330 332 334 328 325 326 324 320 318 320 313 305 301 301 303 297 268 224 225 222 221 213 210 208 208 204 199 196 204 188 184 184 159 149 141 135 157 162 172 187 197 231 202 137 78 71 62 37 9 7 1 276 277 259 268 272 297 127 99 99 25 57 39 92
334 327 333 332 339 344 350 341 342 344 342 339 335 320 336 354 339 340 339 335 331 327 331 329 324 325 326 324 319 318 315 309 304 304 310 300 294 278 237 217 215 220 217 212 205 196 191 190 193 189 174 171 186 163 149 144 157 168 183 189 186 204 148 67 99 78 60 48 32 23 7 344 315 287 280 268 261 247 164 151 274 185 153 134 118
320 322 331 326 335 346 348 339 342 344 341 337 334 330 337 335 335 337 340 335 329 329 328 324 327 328 326 320 316 314 315 314 306 305 294 293 284 279 237 214 201 198 205 208 196 196 192 167 173 166 154 170 169 167 158 155 161 176 183 183 184 139 119 140 98 76 67 45 28 22 17 1 328 309 274 259 253 248 191 212 225 224 179 148 139
318 335 324 327 332 348 345 336 341 343 340 340 335 329 332 334 342 345 340 335 329 328 325 324 326 325 318 315 318 319 317 313 307 300 294 285 278 280 246 211 200 198 182 203 185 164 163 158 162 165 154 164 164 144 174 160 161 170 184 158 94 126 141 115 80 80 68 55 32 24 15 15 2 331 288 260 242 248 219 210 213 206 183 161 135
337 322 323 326 331 346 340 339 343 340 338 339 336 336 340 341 336 340 342 333 330 327 326 325 323 322 319 318 320 317 315 311 308 301 296 287 275 260 262 250 189 191 182 186 195 169 165 166 166 175 167 166 156 150 149 146 164 129 100 90 127 246 78 83 89 78 68 56 39 29 21 25 15 346 313 260 239 238 214 220 214 201 162 139 136
332 316 325 327 336 342 339 339 342 342 334 337 339 341 335 337 339 341 339 331 332 330 327 325 322 320 321 319 317 316 314 312 304 300 297 292 276 253 225 250 263 162 163 176 195 165 163 158 168 147 146 145 145 152 147 135 101 102 106 90 46 53 44 76 82 80 69 59 48 30 29 30 28 8 35 52 86 134 153 157 167 190 146 141 127
328 327 325 329 339 340 339 337 342 339 334 340 343 339 335 343 341 339 336 335 334 330 325 322 322 323 322 321 320 315 312 307 301 297 296 291 284 256 216 213 210 178 156 167 192 177 173 166 163 159 157 145 164 130 104 87 66 48 55 59 56 50 50 64 68 66 57 50 44 33 32 32 34 31 54 62 80 99 101 87 119 135 118 116 104
315 323 322 326 336 342 337 334 341 334 335 344 343 340 350 350 344 341 339 338 335 330 326 326 324 326 327 323 319 313 310 306 302 293 289 286 280 243 205 216 215 187 170 178 178 174 174 173 172 162 129 134 116 91 89 75 74 72 68 67 52 52 55 59 62 65 67 56 39 32 29 33 31 33 36 56 67 79 82 90 96 98 94 89 92
319 318 320 330 333 343 326 332 334 331 340 342 348 337 1 355 347 340 342 343 338 333 330 328 327 329 326 321 318 315 311 304 297 294 286 279 268 227 183 192 183 203 181 197 178 162 174 169 180 161 143 120 98 102 99 88 78 68 64 71 73 71 62 59 57 53 58 51 52 43 29 30 29 31 37 40 54 68 68 69 80 85 89 91 92
326 318 323 328 335 328 320 331 330 334 343 340 348 337 7 356 353 343 344 345 338 340 334 333 333 330 327 325 321 314 309 303 298 296 287 272 233 176 143 131 101 44 325 202 181 172 193 176 172 141 120 105 98 87 96 99 84 73 59 57 65 79 78 72 63 52 51 53 55 49 42 28 20 28 35 45 44 53 57 57 66 73 74 79 83
310 310 325 331 335 324 328 330 329 336 343 340 338 327 3 360 6 350 344 344 342 343 339 337 333 334 330 329 321 315 312 308 305 296 295 354 42 68 77 60 44 67 40 7 318 154 172 75 66 89 92 97 94 89 85 78 81 76 72 47 43 60 72 74 68 56 49 44 41 47 56 43 25 20 24 35 42 46 56 53 49 57 64 70 73
313 313 326 331 333 319 328 327 332 339 341 337 332 325 358 11 8 3 348 346 344 341 338 338 340 338 333 328 323 321 317 313 302 303 325 17 51 55 53 52 38 44 65 39 15 62 78 84 77 83 86 93 92 89 87 84 78 74 68 65 56 39 56 66 61 58 55 54 52 49 45 53 45 30 23 23 35 47 50 52 46 46 51 57 63
317 318 320 326 332 327 331 334 332 338 342 340 336 332 346 35 12 11 345 336 342 333 336 336 338 343 334 327 325 324 314 319 308 316 354 18 48 47 50 39 39 50 58 52 68 72 81 65 92 90 79 81 71 72 79 80 83 76 71 69 60 46 58 62 57 60 59 57 57 54 46 42 41 40 30 26 21 39 50 51 52 49 49 52 54
320 311 316 334 332 327 331 328 330 341 342 340 332 335 336 55 17 359 5 347 350 349 344 339 338 336 338 331 334 331 331 325 316 342 8 23 41 42 41 45 47 51 54 61 70 72 82 79 54 99 100 76 88 75 80 84 74 78 68 67 65 66 67 63 61 59 54 59 58 57 51 43 39 35 33 28 21 26 40 42 45 49 50 49 50
308 310 321 331 331 326 333 331 337 343 341 336 333 336 343 19 24 341 359 355 359 356 349 339 338 345 346 342 341 341 332 333 323 357 25 34 41 46 46 52 52 53 55 59 68 68 87 84 62 48 96 107 94 98 81 73 82 75 73 73 65 64 65 67 65 61 53 58 58 59 57 49 44 44 35 33 26 20 32 43 44 42 42 41 44
293 305 314 319 319 319 329 326 330 337 338 338 336 335 343 342 352 320 340 354 352 353 356 347 349 353 348 346 344 344 336 345 335 355 35 43 44 43 46 50 58 60 57 57 64 69 70 85 87 65 59 97 106 102 99 89 87 87 79 73 69 64 64 65 67 66 62 61 58 58 56 59 57 51 44 35 33 25 24 34 38 37 37 39 38
289 296 309 317 320 326 326 326 333 335 341 345 338 329 335 337 333 297 319 331 333 350 8 358 354 357 350 343 351 351 352 351 352 15 29 31 38 36 40 45 57 64 66 61 51 53 70 76 99 101 84 63 87 98 100 98 90 84 83 73 70 62 63 62 58 55 56 65 69 66 59 49 54 50 48 44 35 30 29 31 31 32 28 37 34
269 295 311 324 320 331 321 329 331 334 339 354 344 334 338 345 349 343 339 346 340 341 355 21 350 357 360 359 356 3 8 13 20 19 25 27 33 37 42 44 54 61 68 71 66 57 75 84 77 92 88 94 90 95 108 107 90 78 75 71 64 62 60 60 55 49 47 52 58 64 60 54 48 46 45 40 41 35 29 27 31 26 21 27 35
285 321 321 321 319 327 326 337 326 339 345 356 354 349 340 338 346 349 344 340 342 337 342 348 360 5 5 5 9 8 13 19 20 19 24 26 32 32 41 48 57 63 67 72 80 75 69 76 87 81 108 106 89 97 99 101 107 79 70 70 65 54 60 58 56 50 48 46 46 56 59 55 49 50 43 43 45 43 42 38 35 28 23 15 11
324 308 307 305 312 326 327 332 329 335 343 5 357 347 328 326 326 320 327 324 338 346 343 347 348 351 10 19 11 2 16 27 23 21 29 29 29 26 28 36 52 72 81 82 78 81 83 84 95 95 57 98 106 130 185 285 29 134 130 93 69 75 69 63 64 63 64 59 65 66 71 64 63 53 45 52 48 48 44 42 53 49 29 1 359
312 296 277 325 327 326 322 334 324 326 335 355 2 348 320 324 342 322 351 333 322 341 334 326 333 358 10 15 18 15 15 23 34 33 37 35 36 33 27 21 29 41 69 73 69 68 67 74 77 107 109 69 96 290 290 318 122 94 113 102 141 115 115 78 67 60 62 66 59 67 50 56 74 71 53 54 54 52 62 65 60 66 50 36 33
297 300 326 332 321 315 312 331 322 319 337 350 349 338 321 328 337 330 339 2 341 346 346 352 3 6 10 7 19 17 17 23 23 30 36 38 39 37 30 30 26 23 44 58 58 59 61 63 73 80 94 120 115 44 24 96 108 139 90 63 138 128 111 98 82 62 63 57 62 57 49 56 58 62 72 67 71 74 74 61 56 50 56 50 48
297 297 338 306 301 300 312 325 323 316 343 349 342 334 336 356 334 326 326 357 352 11 4 10 4 359 2 10 11 16 20 22 20 22 27 33 36 39 37 33 38 32 33 46 58 66 71 80 67 59 34 68 110 115 62 16 23 11 111 123 96 47 203 135 138 93 86 84 78 76 76 93 88 101 103 105 96 80 72 65 62 51 58 54 49
308 343 332 293 279 290 305 319 318 319 338 350 333 341 337 358 346 354 353 6 2 3 19 13 1 5 3 348 6 16 19 23 23 20 23 26 28 30 40 44 47 45 43 44 45 46 36 34 54 62 58 47 89 96 112 21 23 29 40 32 5 161 146 178 142 153 40 103 102 75 74 95 140 133 133 143 120 93 75 63 77 63 48 51 51
313 334 315 296 295 285 281 298 308 311 319 349 344 342 347 355 343 6 350 357 353 340 349 0 15 354 7 8 5 9 20 26 21 22 20 21 25 26 29 34 39 41 41 46 54 60 53 34 42 86 90 109 91 89 82 39 38 29 39 307 50 54 134 128 198 108 121 170 147 167 261 209 235 191 175 144 142 140 153 133 113 112 62 44 59
296 330 313 301 295 295 303 302 294 298 304 348 346 336 352 343 340 11 360 353 355 336 340 360 351 357 13 7 18 17 18 32 28 23 22 21 21 22 23 30 39 47 46 40 36 27 36 14 26 59 127 122 110 104 112 193 60 105 1 92 92 119 149 216 140 148 132 140 177 182 172 204 199 210 161 159 158 153 150 164 157 133 134 97 70
284 300 288 282 288 296 294 295 293 287 283 343 331 332 345 340 338 17 0 338 352 335 330 357 0 353 5 347 16 20 28 33 44 33 25 28 28 25 23 24 29 26 38 46 46 45 45 39 30 35 41 45 63 122 126 88 92 157 128 75 100 131 221 91 162 135 144 124 135 173 175 187 197 192 176 187 175 159 158 158 178 198 163 160 129
225 219 253 265 272 273 277 279 282 286 284 295 302 310 333 339 349 1 353 333 349 331 339 354 353 346 359 351 353 14 19 18 26 29 31 29 32 31 34 34 27 24 28 25 28 44 48 54 49 42 36 52 41 50 58 43 45 35 113 139 111 134 77 90 224 87 95 120 159 184 172 166 180 226 176 186 168 178 173 170 195 218 172 157 147
238 217 242 240 250 266 272 278 271 276 282 290 296 276 263 266 319 327 332 331 336 339 353 340 356 341 0 347 351 7 21 19 17 16 16 23 33 38 40 40 43 39 36 28 22 21 30 41 41 44 46 48 38 54 44 37 49 52 35 37 108 95 157 173 196 174 151 108 83 124 143 175 176 165 204 186 182 188 187 186 199 190 195 174 190